#timestamp,LO_Frequency,Hit,StdDev 
1667898015.5,286046997.2,N
1667898035.3,286046997.2,N
1667898055.1,286046997.0,N
1667898075.9,286046999.2,N
1667898095.7,286046998.8,N
1667898115.6,286047001.1,N
1667898135.4,286046998.7,N
1667898155.2,286046998.1,N
1667898175.1,286046998.6,N
1667898176.0,286046998.6,N
1667898195.8,286046998.6,N
1667898215.6,286047000.1,N
1667898235.5,286047001.1,N
1667898255.3,286046999.9,N
1667898275.2,286047001.9,N
1667898295.9,286047000.1,N
1667898315.7,286047002.4,N
1667898335.6,286047002.8,N
1667898355.4,286047002.2,N
1667898375.2,286047003.9,N
1667898395.1,286047003.1,N
1667898396.0,286047003.1,N
1667898415.8,286047002.9,N
1667898435.7,286047004.2,N
1667898455.5,286047003.1,N
1667898475.3,286047003.0,N
1667898495.2,286047001.3,N
1667898515.0,286046999.8,N
1667898515.9,286046999.8,N
1667898535.8,286047002.0,N
1667898555.6,286047001.7,N
1667898575.4,286047000.1,N
1667898595.3,286046998.4,N
1667898615.1,286046998.7,N
1667898635.8,286047000.8,N
1667898655.7,286046998.2,N
1667898675.5,286047000.4,N
1667898695.4,286047000.4,N
1667898715.2,286046998.2,N
1667898735.0,286046998.2,N
1667898735.9,286046998.2,N
1667898755.8,286047001.2,N
1667898775.6,286046998.2,N
1667898795.4,286046999.5,N
1667898815.3,286047001.2,N
1667898835.1,286046998.1,N
1667898855.9,286046999.8,N
1667898875.7,286047000.1,N
1667898895.5,286047000.6,N
1667898915.4,286047000.8,N
1667898935.2,286047001.1,N
1667898955.0,286047000.3,N
1667898956.0,286047000.3,N
1667898975.8,286047000.0,N
1667898995.6,286046999.7,N
1667899015.5,286047002.2,N
1667899035.3,286047002.8,N
1667899055.1,286046999.8,N
1667899075.9,286047002.6,N
1667899095.7,286047002.4,N
1667899115.6,286047002.0,N
1667899135.4,286047002.7,N
1667899155.2,286047000.4,N
1667899175.1,286046998.8,N
1667899176.0,286046998.8,N
1667899195.8,286046996.9,N
1667899215.6,286046998.2,N
1667899235.5,286046998.6,N
1667899255.3,286047001.2,N
1667899275.2,286047000.4,N
1667899295.9,286047000.0,N
1667899315.7,286047000.7,N
1667899335.6,286046996.9,N
1667899355.4,286046996.5,N
1667899375.2,286046997.6,N
1667899395.1,286046997.2,N
1667899396.0,286046997.2,N
1667899415.8,286046998.0,N
1667899435.7,286046995.6,N
1667899455.5,286046995.0,N
1667899475.3,286046995.9,N
1667899495.2,286046997.9,N
1667899515.0,286046995.0,N
1667899515.9,286046995.0,N
1667899535.7,286046997.2,N
1667899555.6,286046996.7,N
1667899575.4,286046999.0,N
1667899595.3,286046998.3,N
1667899615.1,286046994.9,N
1667899616.0,286046994.9,N
1667899635.8,286046998.0,N
1667899655.7,286046999.3,N
1667899675.5,286047001.2,N
1667899695.3,286047000.3,N
1667899715.2,286047000.2,N
1667899735.0,286047002.5,N
1667899735.9,286047002.5,N
1667899755.8,286047000.1,N
1667899775.6,286047000.9,N
1667899795.4,286047000.0,N
1667899815.3,286047000.0,N
1667899835.1,286047000.2,N
1667899855.8,286047001.5,N
1667899875.7,286047002.0,N
1667899895.5,286047002.2,N
1667899915.4,286047002.3,N
1667899935.2,286046998.4,N
1667899955.0,286046999.8,N
1667899955.9,286046999.8,N
1667899975.8,286047002.5,N
1667899995.6,286047000.4,N
1667900015.4,286047000.4,N
1667900035.3,286046997.0,N
1667900055.1,286046997.1,N
1667900075.9,286046998.3,N
1667900095.7,286046998.5,N
1667900115.5,286046998.1,N
1667900135.4,286047000.5,N
1667900155.2,286047002.7,N
1667900175.0,286047000.0,N
1667900175.9,286047000.0,N
1667900195.8,286046999.2,N
1667900215.6,286046997.3,N
1667900235.5,286046998.7,N
1667900255.3,286046999.9,N
1667900275.1,286047002.8,N
1667900295.9,286047001.9,N
1667900315.7,286047003.8,N
1667900335.6,286047003.8,N
1667900355.4,286047003.9,N
1667900375.2,286047003.2,N
1667900395.1,286047002.3,N
1667900396.0,286047002.3,N
1667900415.8,286047000.2,N
1667900435.7,286047002.2,N
1667900455.5,286047001.5,N
1667900475.3,286046999.7,N
1667900495.2,286047002.4,N
1667900515.0,286047002.2,N
1667900515.9,286047002.2,N
1667900535.7,286047002.7,N
1667900555.6,286047000.0,N
1667900575.4,286046998.8,N
1667900595.3,286046999.1,N
1667900615.1,286047001.1,N
1667900616.0,286047001.1,N
1667900635.8,286046999.9,N
1667900655.7,286047000.2,N
1667900675.5,286047001.7,N
1667900695.3,286047002.2,N
1667900715.2,286047001.3,N
1667900735.0,286047001.5,N
1667900735.9,286047001.5,N
1667900755.8,286047004.2,N
1667900775.6,286047002.2,N
1667900795.4,286047001.3,N
1667900815.3,286047004.3,Y
1667900835.1,286047002.7,P
1667900855.9,286046999.9,N
1667900875.7,286047002.5,N
1667900895.5,286047001.9,N
1667900915.4,286047004.0,Y
1667900935.2,286047000.0,P
1667900955.0,286047001.0,N
1667900955.9,286047001.0,N
1667900975.8,286046999.7,N
1667900995.6,286047000.3,N
1667901015.5,286047000.3,N
1667901035.3,286047000.9,N
1667901055.1,286046998.7,N
1667901075.9,286046998.1,N
1667901095.7,286046998.1,N
1667901115.5,286046999.0,N
1667901135.4,286046998.9,N
1667901155.2,286046999.2,N
1667901175.1,286046998.8,N
1667901176.0,286046998.8,N
1667901195.8,286046999.6,N
1667901215.6,286046996.9,N
1667901235.5,286046997.4,N
1667901255.3,286046998.0,N
1667901275.1,286046997.7,N
1667901295.9,286046997.9,N
1667901315.7,286046998.0,N
1667901335.6,286046996.0,Y
1667901355.4,286046995.6,P
1667901375.2,286046995.2,N
1667901395.1,286046995.3,N
1667901396.0,286046995.3,N
1667901415.8,286046995.3,Y
1667901435.6,286047001.2,P
1667901455.5,286046999.2,N
1667901475.3,286046999.2,N
1667901495.2,286046996.5,N
1667901515.9,286046999.1,N
1667901535.7,286046998.9,N
1667901555.6,286046996.6,N
1667901575.4,286046996.9,N
1667901595.2,286046996.6,N
